QPF
0.00 0.00 0.00 0.00 0.00 0.00 0.00 0.00 0.00 0.00 0.00 0.00 0.00 0.00 0.00 0.00 0.00 0.00 0.00 0.00 0.00 0.00 0.00 0.00 0.00 0.00 0.01 0.01 0.01 0.01 0.01 0.01 0.01 0.01 0.01 0.01 0.01 0.01 0.02 0.02 0.03 0.02 0.04
0.00 0.00 0.00 0.00 0.00 0.00 0.00 0.00 0.00 0.00 0.00 0.00 0.00 0.00 0.00 0.00 0.00 0.00 0.00 0.00 0.00 0.00 0.00 0.00 0.00 0.00 0.00 0.00 0.00 0.00 0.00 0.01 0.01 0.01 0.01 0.01 0.01 0.01 0.01 0.02 0.02 0.02 0.03
0.00 0.00 0.00 0.00 0.00 0.00 0.00 0.00 0.00 0.00 0.00 0.00 0.00 0.00 0.00 0.00 0.00 0.00 0.00 0.00 0.00 0.00 0.00 0.00 0.00 0.00 0.00 0.00 0.00 0.00 0.00 0.00 0.01 0.02 0.01 0.00 0.00 0.02 0.03 0.02 0.02 0.01 0.02
0.00 0.00 0.00 0.00 0.00 0.00 0.00 0.00 0.00 0.00 0.00 0.00 0.00 0.00 0.00 0.00 0.00 0.00 0.00 0.00 0.00 0.00 0.00 0.00 0.00 0.00 0.00 0.00 0.00 0.00 0.00 0.01 0.02 0.03 0.02 0.01 0.00 0.01 0.02 0.01 0.01 0.00 0.01
0.00 0.00 0.00 0.00 0.00 0.00 0.00 0.00 0.00 0.00 0.00 0.00 0.00 0.00 0.00 0.00 0.00 0.00 0.00 0.00 0.00 0.00 0.00 0.00 0.00 0.00 0.00 0.00 0.00 0.00 0.00 0.01 0.03 0.05 0.05 0.02 0.01 0.01 0.00 0.00 0.00 0.00 0.00
0.00 0.00 0.00 0.00 0.00 0.00 0.00 0.00 0.00 0.00 0.00 0.00 0.00 0.00 0.00 0.00 0.00 0.00 0.00 0.00 0.00 0.00 0.00 0.00 0.00 0.00 0.00 0.00 0.00 0.00 0.00 0.00 0.02 0.04 0.06 0.02 0.01 0.01 0.00 0.00 0.00 0.00 0.00
0.00 0.00 0.00 0.00 0.00 0.00 0.00 0.00 0.00 0.00 0.00 0.00 0.00 0.00 0.00 0.00 0.00 0.00 0.00 0.00 0.00 0.00 0.00 0.00 0.00 0.00 0.00 0.00 0.00 0.00 0.00 0.00 0.01 0.04 0.05 0.04 0.02 0.02 0.01 0.00 0.00 0.00 0.00
0.00 0.00 0.00 0.00 0.00 0.00 0.00 0.00 0.00 0.00 0.00 0.00 0.00 0.00 0.00 0.00 0.00 0.00 0.00 0.01 0.01 0.00 0.00 0.00 0.00 0.00 0.00 0.00 0.00 0.00 0.00 0.00 0.01 0.02 0.05 0.05 0.03 0.03 0.01 0.00 0.00 0.00 0.00
0.00 0.00 0.00 0.00 0.00 0.00 0.00 0.00 0.00 0.00 0.00 0.00 0.00 0.00 0.00 0.00 0.00 0.00 0.00 0.00 0.00 0.00 0.00 0.00 0.00 0.00 0.00 0.00 0.00 0.00 0.00 0.00 0.00 0.01 0.05 0.05 0.05 0.05 0.02 0.01 0.00 0.00 0.00
0.00 0.00 0.00 0.00 0.00 0.00 0.00 0.00 0.00 0.00 0.00 0.00 0.00 0.00 0.00 0.00 0.00 0.00 0.00 0.00 0.01 0.01 0.01 0.01 0.00 0.00 0.00 0.00 0.00 0.00 0.00 0.00 0.00 0.01 0.03 0.04 0.07 0.07 0.04 0.01 0.01 0.00 0.00
0.02 0.01 0.00 0.00 0.00 0.00 0.00 0.00 0.00 0.00 0.00 0.00 0.00 0.00 0.00 0.00 0.01 0.01 0.01 0.02 0.03 0.03 0.03 0.02 0.01 0.01 0.01 0.00 0.00 0.00 0.00 0.00 0.00 0.01 0.01 0.03 0.05 0.07 0.05 0.03 0.01 0.01 0.00
0.06 0.03 0.01 0.01 0.01 0.00 0.00 0.00 0.00 0.00 0.01 0.00 0.00 0.00 0.01 0.01 0.02 0.02 0.03 0.05 0.07 0.07 0.07 0.06 0.04 0.03 0.02 0.01 0.00 0.00 0.00 0.00 0.00 0.02 0.02 0.03 0.05 0.07 0.07 0.04 0.02 0.01 0.01
0.10 0.07 0.04 0.03 0.02 0.02 0.02 0.03 0.03 0.03 0.02 0.02 0.02 0.03 0.03 0.04 0.05 0.06 0.07 0.07 0.09 0.11 0.09 0.08 0.07 0.05 0.04 0.02 0.02 0.02 0.02 0.02 0.03 0.05 0.04 0.04 0.05 0.06 0.07 0.05 0.03 0.02 0.01
0.16 0.11 0.08 0.07 0.06 0.04 0.04 0.05 0.05 0.05 0.05 0.06 0.07 0.09 0.13 0.17 0.15 0.13 0.14 0.13 0.13 0.17 0.18 0.15 0.13 0.10 0.08 0.06 0.06 0.05 0.04 0.03 0.05 0.07 0.08 0.11 0.09 0.13 0.13 0.08 0.05 0.03 0.02
0.19 0.12 0.10 0.11 0.08 0.06 0.06 0.06 0.08 0.08 0.09 0.10 0.15 0.20 0.25 0.27 0.22 0.17 0.16 0.17 0.20 0.27 0.30 0.25 0.22 0.21 0.17 0.11 0.09 0.08 0.08 0.07 0.06 0.08 0.10 0.14 0.16 0.18 0.18 0.12 0.08 0.04 0.03
0.25 0.17 0.13 0.12 0.12 0.11 0.11 0.12 0.12 0.11 0.16 0.22 0.21 0.20 0.21 0.23 0.24 0.24 0.18 0.16 0.18 0.20 0.23 0.26 0.25 0.23 0.21 0.19 0.14 0.12 0.13 0.11 0.10 0.13 0.19 0.17 0.19 0.20 0.16 0.15 0.11 0.08 0.04
0.26 0.18 0.15 0.16 0.16 0.15 0.15 0.14 0.13 0.12 0.14 0.17 0.16 0.18 0.18 0.16 0.16 0.17 0.19 0.17 0.17 0.17 0.18 0.19 0.21 0.20 0.21 0.22 0.18 0.15 0.13 0.13 0.15 0.18 0.27 0.27 0.23 0.23 0.19 0.16 0.13 0.10 0.06
0.16 0.15 0.14 0.13 0.15 0.12 0.11 0.10 0.10 0.09 0.10 0.13 0.13 0.13 0.12 0.11 0.13 0.13 0.13 0.13 0.12 0.13 0.16 0.16 0.17 0.20 0.19 0.21 0.23 0.22 0.18 0.14 0.13 0.21 0.28 0.29 0.25 0.21 0.23 0.23 0.18 0.12 0.09
0.11 0.11 0.10 0.11 0.12 0.09 0.08 0.06 0.06 0.06 0.06 0.06 0.07 0.09 0.09 0.08 0.09 0.11 0.10 0.09 0.12 0.17 0.16 0.13 0.14 0.16 0.16 0.15 0.16 0.18 0.18 0.15 0.13 0.15 0.20 0.21 0.22 0.19 0.18 0.22 0.22 0.14 0.10
0.07 0.08 0.08 0.10 0.12 0.12 0.07 0.05 0.04 0.04 0.05 0.05 0.05 0.04 0.04 0.05 0.07 0.09 0.08 0.10 0.12 0.15 0.14 0.14 0.17 0.18 0.17 0.18 0.19 0.19 0.17 0.13 0.12 0.12 0.12 0.15 0.18 0.15 0.12 0.13 0.14 0.10 0.11
0.05 0.07 0.08 0.09 0.09 0.08 0.05 0.03 0.03 0.03 0.04 0.05 0.04 0.03 0.03 0.04 0.04 0.04 0.06 0.09 0.11 0.13 0.13 0.14 0.17 0.21 0.20 0.20 0.21 0.18 0.17 0.15 0.14 0.12 0.10 0.14 0.17 0.15 0.14 0.15 0.15 0.10 0.06
0.02 0.03 0.04 0.04 0.04 0.03 0.03 0.03 0.03 0.03 0.04 0.05 0.04 0.02 0.02 0.02 0.03 0.04 0.06 0.08 0.12 0.14 0.14 0.16 0.16 0.17 0.17 0.17 0.17 0.17 0.14 0.12 0.10 0.09 0.09 0.09 0.10 0.14 0.16 0.18 0.19 0.15 0.11
0.01 0.01 0.02 0.02 0.02 0.03 0.03 0.03 0.03 0.04 0.04 0.03 0.02 0.01 0.01 0.02 0.02 0.02 0.03 0.04 0.07 0.10 0.14 0.17 0.18 0.15 0.14 0.15 0.16 0.18 0.15 0.10 0.09 0.08 0.07 0.07 0.07 0.10 0.13 0.22 0.24 0.17 0.16
0.00 0.01 0.01 0.01 0.01 0.02 0.02 0.02 0.02 0.02 0.02 0.01 0.01 0.01 0.01 0.01 0.01 0.01 0.01 0.01 0.03 0.05 0.08 0.12 0.17 0.16 0.16 0.16 0.17 0.17 0.14 0.11 0.10 0.09 0.08 0.07 0.07 0.08 0.11 0.14 0.15 0.15 0.17
0.00 0.00 0.00 0.00 0.00 0.00 0.01 0.01 0.01 0.01 0.01 0.01 0.01 0.01 0.00 0.00 0.00 0.00 0.00 0.01 0.01 0.03 0.04 0.06 0.12 0.14 0.14 0.16 0.18 0.18 0.16 0.14 0.12 0.10 0.09 0.10 0.09 0.07 0.08 0.11 0.09 0.09 0.11
0.00 0.00 0.01 0.01 0.01 0.00 0.00 0.01 0.01 0.01 0.01 0.00 0.01 0.01 0.01 0.00 0.00 0.00 0.00 0.01 0.01 0.01 0.02 0.03 0.06 0.09 0.12 0.14 0.13 0.15 0.14 0.15 0.15 0.13 0.09 0.10 0.12 0.10 0.09 0.09 0.08 0.07 0.09
MSLP
1010.61 1010.32 1010.15 1010.18 1010.41 1010.81 1011.31 1011.82 1012.26 1012.59 1012.81 1012.93 1013.02 1013.12 1013.27 1013.49 1013.77 1014.07 1014.36 1014.59 1014.75 1014.84 1014.89 1014.93 1014.97 1015.04 1015.15 1015.26 1015.38 1015.47 1015.54 1015.58 1015.60 1015.62 1015.67 1015.74 1015.86 1016.00 1016.16 1016.33 1016.50 1016.66 1016.82
1010.27 1010.09 1010.02 1010.14 1010.44 1010.88 1011.39 1011.88 1012.30 1012.61 1012.81 1012.95 1013.07 1013.21 1013.41 1013.66 1013.95 1014.24 1014.50 1014.69 1014.81 1014.87 1014.91 1014.95 1015.02 1015.12 1015.24 1015.38 1015.50 1015.60 1015.65 1015.68 1015.70 1015.73 1015.78 1015.88 1016.01 1016.16 1016.33 1016.50 1016.66 1016.81 1016.98
1009.89 1009.81 1009.86 1010.08 1010.45 1010.93 1011.44 1011.92 1012.31 1012.60 1012.80 1012.95 1013.09 1013.27 1013.50 1013.78 1014.07 1014.34 1014.56 1014.70 1014.79 1014.83 1014.86 1014.91 1014.99 1015.12 1015.28 1015.43 1015.57 1015.66 1015.72 1015.76 1015.79 1015.84 1015.92 1016.04 1016.19 1016.37 1016.54 1016.70 1016.85 1017.00 1017.15
1009.57 1009.59 1009.74 1010.05 1010.49 1011.00 1011.51 1011.97 1012.33 1012.59 1012.78 1012.93 1013.10 1013.31 1013.56 1013.85 1014.14 1014.38 1014.56 1014.67 1014.72 1014.75 1014.78 1014.84 1014.95 1015.11 1015.28 1015.45 1015.60 1015.70 1015.77 1015.82 1015.88 1015.96 1016.08 1016.23 1016.41 1016.60 1016.78 1016.93 1017.07 1017.20 1017.35
1009.38 1009.49 1009.73 1010.12 1010.60 1011.13 1011.63 1012.05 1012.37 1012.59 1012.76 1012.91 1013.09 1013.32 1013.60 1013.89 1014.17 1014.40 1014.55 1014.63 1014.66 1014.68 1014.72 1014.80 1014.93 1015.11 1015.31 1015.49 1015.64 1015.75 1015.83 1015.89 1015.97 1016.08 1016.23 1016.42 1016.63 1016.83 1017.01 1017.16 1017.28 1017.40 1017.55
1009.37 1009.56 1009.88 1010.32 1010.83 1011.34 1011.80 1012.17 1012.43 1012.61 1012.75 1012.89 1013.09 1013.33 1013.63 1013.93 1014.20 1014.41 1014.55 1014.61 1014.64 1014.66 1014.71 1014.81 1014.97 1015.17 1015.38 1015.56 1015.71 1015.81 1015.89 1015.96 1016.05 1016.18 1016.36 1016.57 1016.79 1017.00 1017.18 1017.33 1017.44 1017.56 1017.70
1009.54 1009.79 1010.17 1010.64 1011.15 1011.63 1012.03 1012.32 1012.51 1012.63 1012.74 1012.89 1013.09 1013.36 1013.66 1013.98 1014.25 1014.45 1014.57 1014.63 1014.66 1014.69 1014.76 1014.89 1015.07 1015.28 1015.48 1015.66 1015.80 1015.89 1015.95 1016.01 1016.11 1016.25 1016.43 1016.65 1016.88 1017.09 1017.26 1017.40 1017.52 1017.63 1017.78
1009.81 1010.13 1010.54 1011.03 1011.51 1011.93 1012.25 1012.47 1012.59 1012.67 1012.75 1012.89 1013.11 1013.39 1013.72 1014.04 1014.31 1014.51 1014.62 1014.67 1014.70 1014.74 1014.83 1014.97 1015.17 1015.39 1015.59 1015.76 1015.87 1015.94 1015.99 1016.03 1016.11 1016.24 1016.42 1016.63 1016.86 1017.06 1017.23 1017.36 1017.48 1017.60 1017.76
1010.11 1010.48 1010.92 1011.40 1011.84 1012.20 1012.45 1012.59 1012.65 1012.69 1012.76 1012.91 1013.14 1013.45 1013.79 1014.11 1014.38 1014.56 1014.65 1014.69 1014.71 1014.76 1014.86 1015.01 1015.22 1015.44 1015.64 1015.80 1015.89 1015.94 1015.96 1015.99 1016.05 1016.16 1016.32 1016.52 1016.72 1016.91 1017.07 1017.21 1017.33 1017.47 1017.65
1010.34 1010.76 1011.23 1011.69 1012.09 1012.39 1012.57 1012.64 1012.66 1012.69 1012.76 1012.93 1013.19 1013.51 1013.85 1014.17 1014.41 1014.56 1014.63 1014.65 1014.65 1014.69 1014.79 1014.95 1015.16 1015.38 1015.58 1015.73 1015.81 1015.85 1015.86 1015.87 1015.91 1016.00 1016.14 1016.31 1016.49 1016.66 1016.82 1016.96 1017.09 1017.25 1017.45
1010.48 1010.94 1011.42 1011.87 1012.23 1012.47 1012.59 1012.63 1012.63 1012.65 1012.75 1012.94 1013.22 1013.55 1013.89 1014.18 1014.39 1014.50 1014.53 1014.51 1014.49 1014.51 1014.60 1014.76 1014.96 1015.18 1015.38 1015.53 1015.61 1015.64 1015.65 1015.65 1015.68 1015.76 1015.87 1016.02 1016.18 1016.34 1016.50 1016.64 1016.79 1016.98 1017.21
1010.52 1011.02 1011.50 1011.93 1012.24 1012.44 1012.53 1012.54 1012.55 1012.59 1012.71 1012.93 1013.22 1013.56 1013.88 1014.13 1014.29 1014.35 1014.34 1014.28 1014.23 1014.23 1014.30 1014.45 1014.65 1014.86 1015.05 1015.20 1015.28 1015.32 1015.33 1015.34 1015.37 1015.43 1015.54 1015.67 1015.82 1015.97 1016.13 1016.28 1016.46 1016.67 1016.93
1010.53 1011.04 1011.52 1011.91 1012.18 1012.34 1012.40 1012.41 1012.43 1012.50 1012.65 1012.89 1013.19 1013.51 1013.80 1014.01 1014.12 1014.14 1014.08 1013.99 1013.92 1013.90 1013.95 1014.08 1014.26 1014.45 1014.63 1014.77 1014.85 1014.89 1014.91 1014.93 1014.96 1015.03 1015.13 1015.26 1015.41 1015.56 1015.72 1015.89 1016.09 1016.33 1016.62
1010.59 1011.09 1011.53 1011.87 1012.10 1012.22 1012.26 1012.28 1012.31 1012.41 1012.58 1012.83 1013.12 1013.42 1013.67 1013.83 1013.90 1013.88 1013.79 1013.69 1013.61 1013.58 1013.62 1013.73 1013.88 1014.03 1014.18 1014.28 1014.34 1014.37 1014.39 1014.41 1014.45 1014.53 1014.64 1014.77 1014.93 1015.09 1015.26 1015.45 1015.68 1015.94 1016.26
1010.77 1011.22 1011.60 1011.87 1012.04 1012.12 1012.15 1012.17 1012.22 1012.33 1012.51 1012.76 1013.03 1013.28 1013.48 1013.61 1013.65 1013.61 1013.53 1013.44 1013.37 1013.35 1013.38 1013.46 1013.56 1013.66 1013.73 1013.77 1013.78 1013.78 1013.77 1013.79 1013.83 1013.92 1014.04 1014.19 1014.35 1014.53 1014.73 1014.95 1015.20 1015.50 1015.83
1011.11 1011.47 1011.76 1011.95 1012.05 1012.09 1012.10 1012.12 1012.18 1012.30 1012.48 1012.69 1012.92 1013.12 1013.28 1013.37 1013.39 1013.37 1013.32 1013.27 1013.24 1013.25 1013.27 1013.31 1013.35 1013.35 1013.32 1013.26 1013.18 1013.11 1013.05 1013.04 1013.08 1013.17 1013.31 1013.48 1013.67 1013.88 1014.11 1014.36 1014.65 1014.97 1015.33
1011.56 1011.81 1011.99 1012.09 1012.12 1012.12 1012.12 1012.14 1012.21 1012.33 1012.48 1012.66 1012.83 1012.97 1013.07 1013.13 1013.16 1013.16 1013.17 1013.18 1013.21 1013.25 1013.28 1013.27 1013.22 1013.11 1012.95 1012.76 1012.55 1012.38 1012.25 1012.19 1012.21 1012.30 1012.46 1012.65 1012.88 1013.13 1013.39 1013.68 1014.00 1014.36 1014.74
1012.05 1012.19 1012.26 1012.26 1012.24 1012.21 1012.21 1012.24 1012.31 1012.42 1012.54 1012.67 1012.77 1012.84 1012.89 1012.91 1012.94 1012.99 1013.06 1013.15 1013.25 1013.32 1013.35 1013.29 1013.15 1012.91 1012.59 1012.24 1011.89 1011.59 1011.37 1011.26 1011.25 1011.34 1011.51 1011.74 1012.00 1012.29 1012.60 1012.93 1013.29 1013.68 1014.09
1012.48 1012.51 1012.48 1012.42 1012.36 1012.32 1012.33 1012.38 1012.47 1012.57 1012.67 1012.73 1012.75 1012.75 1012.73 1012.72 1012.74 1012.82 1012.95 1013.11 1013.27 1013.38 1013.40 1013.30 1013.05 1012.68 1012.21 1011.70 1011.21 1010.78 1010.47 1010.29 1010.26 1010.34 1010.53 1010.79 1011.09 1011.43 1011.78 1012.15 1012.55 1012.96 1013.40
1012.76 1012.70 1012.61 1012.51 1012.44 1012.42 1012.46 1012.55 1012.67 1012.77 1012.83 1012.84 1012.78 1012.69 1012.59 1012.53 1012.54 1012.63 1012.80 1013.02 1013.22 1013.35 1013.36 1013.21 1012.89 1012.40 1011.80 1011.15 1010.53 1010.00 1009.61 1009.38 1009.31 1009.40 1009.60 1009.88 1010.21 1010.58 1010.97 1011.38 1011.80 1012.24 1012.69
1012.86 1012.74 1012.61 1012.50 1012.45 1012.48 1012.57 1012.71 1012.86 1012.98 1013.02 1012.97 1012.84 1012.66 1012.48 1012.36 1012.33 1012.40 1012.58 1012.82 1013.05 1013.19 1013.19 1013.00 1012.61 1012.04 1011.35 1010.61 1009.90 1009.30 1008.85 1008.59 1008.50 1008.58 1008.79 1009.08 1009.44 1009.82 1010.22 1010.65 1011.08 1011.54 1012.01
1012.77 1012.64 1012.51 1012.41 1012.40 1012.48 1012.64 1012.84 1013.03 1013.16 1013.19 1013.10 1012.90 1012.64 1012.38 1012.18 1012.09 1012.13 1012.29 1012.51 1012.74 1012.88 1012.87 1012.66 1012.24 1011.63 1010.90 1010.12 1009.38 1008.75 1008.28 1008.00 1007.91 1007.98 1008.18 1008.46 1008.81 1009.18 1009.57 1009.99 1010.42 1010.87 1011.34
1012.59 1012.47 1012.35 1012.29 1012.31 1012.44 1012.66 1012.91 1013.15 1013.30 1013.32 1013.20 1012.95 1012.62 1012.28 1012.00 1011.84 1011.81 1011.92 1012.11 1012.31 1012.44 1012.42 1012.21 1011.80 1011.21 1010.49 1009.73 1009.01 1008.40 1007.95 1007.68 1007.58 1007.63 1007.80 1008.05 1008.35 1008.68 1009.03 1009.41 1009.81 1010.24 1010.69
1012.42 1012.32 1012.22 1012.18 1012.23 1012.39 1012.64 1012.93 1013.19 1013.35 1013.37 1013.23 1012.95 1012.57 1012.17 1011.82 1011.59 1011.49 1011.53 1011.67 1011.83 1011.93 1011.91 1011.72 1011.35 1010.81 1010.17 1009.48 1008.83 1008.29 1007.88 1007.63 1007.52 1007.55 1007.67 1007.85 1008.08 1008.33 1008.60 1008.91 1009.26 1009.64 1010.07
1012.36 1012.28 1012.19 1012.15 1012.20 1012.36 1012.60 1012.89 1013.15 1013.32 1013.34 1013.19 1012.89 1012.49 1012.05 1011.65 1011.35 1011.18 1011.16 1011.23 1011.33 1011.41 1011.39 1011.23 1010.92 1010.47 1009.93 1009.36 1008.83 1008.37 1008.02 1007.80 1007.69 1007.68 1007.73 1007.82 1007.94 1008.09 1008.27 1008.49 1008.76 1009.09 1009.47
1012.47 1012.40 1012.30 1012.23 1012.24 1012.36 1012.56 1012.81 1013.05 1013.20 1013.21 1013.07 1012.77 1012.36 1011.91 1011.48 1011.14 1010.92 1010.82 1010.83 1010.88 1010.92 1010.90 1010.78 1010.54 1010.20 1009.78 1009.35 1008.93 1008.58 1008.31 1008.12 1008.00 1007.94 1007.92 1007.91 1007.92 1007.95 1008.02 1008.14 1008.33 1008.59 1008.93
Thickness
5832 5832 5829 5826 5823 5820 5817 5813 5809 5806 5802 5799 5797 5794 5791 5788 5785 5783 5780 5778 5775 5773 5770 5768 5766 5765 5763 5762 5761 5760 5758 5757 5756 5755 5753 5752 5751 5750 5749 5748 5747 5746 5745
5839 5834 5830 5826 5823 5819 5816 5812 5808 5804 5801 5798 5795 5792 5789 5787 5784 5782 5779 5777 5774 5772 5770 5768 5766 5764 5762 5761 5759 5758 5757 5756 5754 5754 5753 5751 5750 5749 5749 5747 5746 5744 5744
5840 5834 5830 5826 5822 5818 5815 5811 5807 5803 5800 5796 5793 5790 5788 5785 5783 5781 5778 5776 5773 5771 5769 5767 5765 5763 5761 5760 5758 5757 5756 5754 5753 5752 5751 5750 5750 5749 5747 5746 5745 5743 5742
5840 5833 5829 5825 5821 5817 5813 5809 5806 5802 5799 5795 5792 5789 5786 5784 5781 5779 5777 5774 5772 5770 5768 5766 5764 5762 5761 5759 5757 5756 5754 5753 5752 5751 5750 5749 5749 5747 5746 5745 5744 5742 5741
5836 5831 5827 5823 5819 5815 5811 5808 5804 5800 5797 5794 5790 5787 5784 5782 5779 5777 5775 5773 5771 5769 5766 5764 5763 5761 5759 5758 5756 5754 5753 5752 5751 5750 5749 5748 5747 5746 5745 5744 5743 5742 5741
5832 5828 5824 5820 5817 5813 5809 5806 5802 5799 5795 5792 5789 5786 5783 5780 5777 5775 5773 5771 5769 5767 5765 5763 5761 5759 5757 5756 5755 5753 5752 5751 5750 5749 5749 5747 5746 5746 5745 5744 5743 5741 5740
5827 5824 5821 5817 5814 5810 5806 5803 5799 5796 5793 5790 5787 5784 5781 5778 5775 5773 5771 5769 5767 5765 5763 5761 5759 5757 5755 5754 5753 5752 5751 5750 5749 5748 5747 5746 5746 5745 5745 5743 5742 5741 5740
5824 5820 5816 5814 5810 5807 5803 5800 5796 5793 5790 5787 5784 5781 5778 5776 5773 5771 5769 5766 5764 5762 5760 5758 5756 5755 5753 5752 5751 5750 5750 5749 5748 5747 5746 5745 5745 5745 5744 5743 5742 5740 5739
5820 5816 5812 5809 5806 5803 5800 5797 5793 5790 5787 5784 5781 5778 5776 5773 5771 5768 5766 5764 5761 5760 5758 5756 5754 5752 5751 5750 5749 5748 5748 5747 5747 5745 5745 5744 5744 5744 5743 5743 5741 5740 5739
5814 5810 5808 5805 5803 5800 5796 5793 5790 5787 5784 5781 5778 5775 5772 5770 5767 5765 5763 5760 5759 5757 5755 5754 5752 5750 5749 5747 5746 5746 5746 5746 5745 5744 5743 5742 5743 5743 5743 5742 5741 5740 5738
5805 5804 5803 5801 5799 5796 5793 5790 5787 5784 5781 5778 5775 5772 5769 5767 5764 5762 5760 5757 5755 5754 5752 5750 5749 5748 5746 5745 5744 5744 5743 5743 5744 5743 5742 5742 5742 5742 5742 5741 5741 5739 5738
5795 5796 5798 5797 5794 5792 5789 5786 5783 5780 5777 5774 5771 5768 5766 5764 5761 5759 5756 5755 5753 5751 5748 5746 5745 5744 5743 5742 5741 5741 5741 5741 5741 5741 5742 5741 5741 5741 5741 5741 5740 5739 5738
5792 5791 5791 5791 5789 5787 5785 5781 5778 5775 5773 5770 5767 5764 5762 5760 5757 5755 5753 5750 5749 5747 5745 5743 5741 5740 5739 5738 5738 5738 5739 5739 5739 5740 5741 5741 5741 5740 5740 5740 5739 5739 5738
5786 5785 5787 5787 5784 5782 5780 5777 5774 5771 5768 5766 5764 5761 5758 5755 5753 5750 5749 5747 5746 5744 5742 5740 5738 5736 5735 5734 5734 5735 5736 5736 5737 5738 5739 5740 5740 5739 5739 5738 5738 5738 5737
5781 5781 5781 5781 5779 5777 5774 5771 5769 5767 5764 5761 5759 5757 5754 5751 5748 5745 5743 5742 5742 5740 5739 5736 5734 5734 5733 5732 5731 5731 5732 5733 5734 5735 5737 5739 5739 5738 5737 5737 5737 5737 5737
5773 5774 5775 5773 5771 5770 5768 5765 5763 5761 5758 5756 5753 5751 5749 5746 5743 5741 5738 5736 5736 5736 5734 5733 5732 5730 5729 5729 5728 5729 5730 5730 5731 5732 5734 5736 5736 5736 5736 5735 5735 5735 5736
5764 5766 5766 5766 5765 5763 5760 5758 5756 5753 5751 5749 5746 5744 5741 5739 5737 5735 5733 5730 5729 5729 5729 5728 5727 5726 5725 5725 5724 5725 5726 5727 5728 5729 5731 5732 5734 5734 5734 5733 5733 5734 5734
5759 5758 5759 5760 5757 5755 5753 5751 5749 5746 5743 5741 5738 5736 5733 5732 5730 5728 5726 5724 5723 5722 5722 5722 5721 5720 5720 5720 5720 5721 5722 5724 5726 5727 5728 5729 5730 5731 5731 5732 5732 5732 5733
5755 5754 5752 5751 5749 5747 5745 5743 5741 5738 5735 5733 5730 5727 5726 5723 5722 5721 5719 5719 5718 5717 5717 5716 5716 5714 5714 5715 5716 5717 5719 5720 5723 5725 5726 5727 5728 5729 5729 5730 5731 5731 5732
5749 5748 5746 5744 5741 5739 5737 5734 5732 5729 5727 5725 5723 5720 5718 5716 5715 5714 5713 5711 5711 5710 5710 5709 5709 5710 5709 5709 5711 5714 5716 5718 5720 5722 5724 5725 5726 5727 5727 5729 5730 5730 5731
5742 5740 5739 5736 5734 5732 5728 5724 5721 5718 5717 5716 5714 5713 5711 5710 5708 5707 5706 5704 5703 5703 5703 5703 5703 5703 5703 5704 5703 5705 5710 5715 5717 5720 5721 5723 5724 5726 5727 5728 5729 5730 5731
5736 5735 5732 5730 5727 5725 5721 5718 5715 5711 5709 5707 5706 5705 5704 5702 5700 5699 5697 5696 5696 5695 5695 5695 5696 5695 5697 5698 5696 5695 5697 5703 5711 5718 5719 5720 5723 5724 5726 5727 5728 5729 5730
5733 5730 5728 5724 5720 5717 5714 5710 5706 5703 5699 5696 5694 5693 5694 5693 5692 5690 5689 5688 5688 5687 5687 5688 5688 5688 5688 5690 5692 5690 5689 5692 5700 5708 5714 5718 5721 5721 5724 5726 5728 5729 5730
5731 5729 5724 5719 5715 5711 5707 5702 5696 5691 5686 5686 5685 5684 5684 5684 5683 5682 5681 5680 5679 5679 5679 5680 5681 5680 5681 5681 5684 5687 5689 5692 5691 5695 5704 5712 5716 5718 5720 5724 5727 5728 5728
5728 5723 5718 5713 5708 5705 5700 5695 5689 5684 5680 5678 5676 5675 5674 5673 5673 5672 5671 5671 5670 5670 5671 5672 5672 5673 5674 5675 5676 5678 5681 5685 5688 5688 5691 5699 5706 5712 5717 5721 5724 5726 5727
5721 5716 5710 5705 5700 5696 5692 5687 5681 5676 5673 5669 5666 5663 5662 5661 5662 5662 5661 5660 5660 5660 5661 5662 5663 5664 5665 5667 5669 5671 5673 5676 5680 5683 5685 5690 5696 5704 5711 5716 5720 5722 5724